sat.trackr.live / text

‹ back to catalog

STARLINK-4431

NORAD 53486 · 2022-099X

PAYLOAD ACTIVE UNKNOWN

§ Identity

Operator
Country
US
Launch date
2022-08-12
Launch site
AFWTR
Launch vehicle
Mass (kg)
RCS (m²)

Purposes: comms

External: N2YO · Heavens-Above · Gunter

§ Orbital elements

Epoch: 2026-05-25T04:00:03.998880Z

Period
93.43 min
Inclination
97.6050°
Eccentricity
0.0001044
Mean motion
15.41262556 rev/d
Perigee alt
441.7 km
Apogee alt
443.1 km
Semi-major
6,820.5 km
B*
1.5557e-2
RAAN
267.3376°
Arg perigee
87.8329°
Mean anomaly
215.4621°
Rev number
588

§ Raw data

STARLINK-44311 53486U 22099X   26145.16671295  .00698542  00000+0  15557-1 0  99902 53486  97.6050 267.3376 0001044  87.8329 215.4621 15.41262556  5884

JSON: /api/v1/satellites/53486 · /tle

For live sub-satellite position, see the globe view (requires WebGL).

§ Visibility from observer

Set your observer location to see the next 7 days of passes ≥ 10°. The values pass through the URL so the page stays shareable.

No JS? Fill the form by hand. The geolocation button needs JavaScript.